Content
SEND FEEDBACK

Daily
Averages
Monthly
Summary
Ireland

CLAREMORRIS, IRELAND


Home > Europe > Ireland
Elevation: 226 feet     Latitude: 53 43N     Longitude: 008 59W

WEATHER
 
SELECT A DAY
Number of Records: 194,067;   Date Range: 5/30/97 - 10/23/14
 
SHARE

PRINT THIS DATA

[ ← Previous Day ]
WEATHER ALMANAC - AUGUST 21, 2013
[ Next Day → ]
[ °C ]   °F
Weather ElementAverageHighLow
Temperature60 °F64.4 °F (1:30 pm)56 °F (7:00 am)
Dewpoint56.9 °F59 °F (1:30 pm)55.4 °F (6:00 am)
Humidity89.4 %100 % (7:00 am)77 % (3:00 pm)
Barometer30.06 in30.12 in (7:00 pm)30.01 in (6:00 am)
Wind Speed12.6 mph17.3 mph (11:30 am)
Wind Gust25.3 mph (11:00 am)
Weather ElementAverage
Visibility6.8 mi
Wind DirectionWSW (239.7 °)

Weather ElementTotal
Precipitation---
Heating Degree Days4.8 (Base 65)
Growing Degree Days10.2 (Base 50)
Averaged from 30 records on August 21, 2013
WEATHER CONDITIONS BREAKOUT
WIND DIRECTION BREAKOUT
WEATHER BY HOUR - AUGUST 21, 2013
[ °C ]   °F
Local TimeTemperatureDewpointHumidityBarometerVisibilityWind DirectionWind SpeedGust SpeedPrecipitationEventsConditions
6:00 AM57.2 °F55.4 °F94 %30.01 in6.2 miSSW (200°)11.5 mphLight Drizzle
6:30 AM57.2 °F55.4 °F94 %30.01 in6.2 miSSW (210°)11.5 mphMostly Cloudy
7:00 AM56.0 °F56.0 °F100 %30.03 in14.0 miSSW (210°)11.2 mphPartly Cloudy
7:00 AM57.2 °F55.4 °F94 %30.01 in6.2 miSSW (210°)11.5 mphMostly Cloudy
7:30 AM57.2 °F55.4 °F94 %30.01 in6.2 miSSW (200°)10.4 mphMostly Cloudy
8:00 AM57.2 °F55.4 °F94 %30.04 in6.2 miSSW (210°)13.8 mphMostly Cloudy
8:30 AM57.2 °F57.2 °F100 %30.04 in6.2 miSSW (210°)10.4 mphMostly Cloudy
9:00 AM57.2 °F57.2 °F100 %30.04 in4.3 miSSW (210°)12.7 mphLight Drizzle
9:30 AM57.2 °F57.2 °F100 %30.04 in5.0 miWSW (250°)11.5 mphMostly Cloudy
10:00 AM59.0 °F57.2 °F94 %30.04 in6.2 miWSW (240°)9.2 mphMostly Cloudy
10:30 AM59.0 °F57.2 °F94 %30.04 in6.2 miSW (230°)10.4 mphRainLight Rain
11:00 AM59.0 °F57.2 °F94 %30.06 in6.2 miWSW (250°)13.8 mph25.3 mphMostly Cloudy
11:30 AM59.0 °F57.2 °F94 %30.06 in6.2 miWSW (240°)17.3 mphRainLight Rain
12:00 PM60.8 °F57.2 °F88 %30.06 in6.2 miWSW (250°)13.8 mphMostly Cloudy
12:30 PM60.8 °F57.2 °F88 %30.06 in6.2 miWSW (240°)11.5 mphRainLight Rain
1:00 PM62.6 °F57.2 °F82 %30.06 in6.2 miWSW (240°)12.7 mphMostly Cloudy
1:00 PM62.0 °F57.0 °F80 %30.08 in16.0 miWSW (240°)13.4 mphPartly Cloudy
1:30 PM64.4 °F59.0 °F83 %30.06 in6.2 miWSW (240°)13.8 mphMostly Cloudy
2:00 PM62.6 °F57.2 °F82 %30.06 in6.2 miWest (280°)13.8 mphMostly Cloudy
2:30 PM62.6 °F57.2 °F82 %30.09 in6.2 miWest (260°)13.8 mphMostly Cloudy
3:00 PM62.6 °F55.4 °F77 %30.06 in6.2 miWSW (250°)17.3 mphScattered Clouds
3:30 PM62.6 °F57.2 °F82 %30.09 in6.2 miWest (260°)11.5 mphMostly Cloudy
4:00 PM62.6 °F57.2 °F82 %30.09 in6.2 miWest (260°)15.0 mphMostly Cloudy
4:30 PM62.6 °F57.2 °F82 %30.09 in6.2 miWest (260°)16.1 mphMostly Cloudy
5:00 PM60.8 °F57.2 °F88 %30.09 in6.2 miWSW (250°)13.8 mphMostly Cloudy
5:30 PM62.6 °F57.2 °F82 %30.09 in6.2 miWest (260°)11.5 mphMostly Cloudy
6:00 PM60.8 °F57.2 °F88 %30.09 in6.2 miWSW (250°)11.5 mphMostly Cloudy
6:30 PM60.8 °F57.2 °F88 %30.09 in6.2 miWest (260°)11.5 mphRainLight Rain
7:00 PM60.0 °F58.0 °F89 %30.12 in9.0 miWest (260°)11.2 mphRainLight Rain
7:00 PM59.0 °F57.2 °F94 %30.09 in6.2 miWest (260°)10.4 mphRainLight Rain
Hourly data recorded from EIKN, located miles away from Claremorris, Ireland







STORIES FROM OUR PARTNERS